Location: Penzberg
(47.7615°N, 11.3159°E)
Time: 12:46:24
(UTC+01:00)

ISS - Visible Passes

Search period start: 23 February 2017 00:00
Search period end: 05 March 2017 00:00
Orbit: 399 x 408 km, 51.6° (Epoch: 23 February)

Date Brightness Start Highest point End Pass type
(mag) Time Alt. Az. Time Alt. Az. Time Alt. Az.
01 Mar -0.1 05:57:20 10° SSE 05:58:11 11° SE 05:59:02 10° ESE visible
03 Mar -1.0 05:46:32 10° SSW 05:49:07 22° SE 05:51:43 10° E visible
04 Mar -0.5 04:55:10 10° SSE 04:56:44 13° SE 04:58:18 10° ESE visible
